Weather History for Wakkanai Airport, Japan

Change the Weather History Date:

Saturday, February 2, 2013

  Actual Average Record
Temperature  
Mean Temperature 32 °F -  
Max Temperature 39 °F 24 °F 39 °F (2013)
Min Temperature 23 °F 18 °F 6 °F (2005)
Degree Days  
Heating Degree Days 34    
Moisture  
Dew Point 24 °F    
Average Humidity 79    
Maximum Humidity 93    
Minimum Humidity 59    
Precipitation  
Precipitation 0.00 in - - ()
Sea Level Pressure  
Sea Level Pressure 29.46 in    
Wind  
Wind Speed 25 mph ()    
Max Wind Speed 37 mph    
Max Gust Speed 48 mph    
Visibility 3.0 miles    
Events Rain , Snow    
Averages and records for this station are not official NWS values.
T = Trace of Precipitation, MM = Missing Value Source: Averaged Metar Reports

Daily Weather History Graph

Daily Weather History Graph

Search for Another Location

Airport:

Trip Planner

Search our weather history database for the weather conditions in past years. The results will help you decide how hot, cold, wet, or windy it might be!

Date:

Astronomy

Feb. 02, 2013 Rise Set
Actual Time 6:52 AM JST 4:40 PM JST
Civil Twilight 6:21 AM JST 5:12 PM JST
Nautical Twilight 5:46 AM JST 5:47 PM JST
Astronomical Twilight 5:11 AM JST 6:22 PM JST
Moon 11:33 PM JST (2/2) 9:18 AM JST (2/2)
Length of Visible Light 10h 50m
Length of Day
9h 47m
Waning Gibbous, 66% of the Moon is Illuminated
Feb 2
Waning Gibbous
Feb 3
Last Quarter
Feb 10
New
Feb 18
First Quarter
Feb 26
Full

Hourly Weather History & Observations

Time (JST) Temp. Windchill Dew Point Humidity Pressure Visibility Wind Dir Wind Speed Gust Speed Precip Events Conditions
8:30 AM 37.4 °F 28.9 °F 35.6 °F 93% 29.36 in 6.2 mi South 13.8 mph - N/A Rain Light Rain Showers
9:00 AM 39.2 °F 27.4 °F 33.8 °F 81% 29.33 in 6.2 mi South 29.9 mph - N/A Rain Light Rain Showers
10:00 AM 39.2 °F 27.6 °F 35.6 °F 87% 29.33 in 6.2 mi SSW 28.8 mph - N/A Rain Light Rain Showers
11:00 AM 32.0 °F 16.5 °F 28.4 °F 87% 29.36 in 0.9 mi WNW 35.7 mph - N/A Snow Light Snow Showers
11:03 AM 32.0 °F 16.3 °F 28.4 °F 87% 29.36 in 1.0 mi WNW 36.8 mph 48.3 mph N/A Snow Light Snow Showers
11:07 AM 32.0 °F 16.3 °F 28.4 °F 87% 29.36 in 1.5 mi WNW 36.8 mph 48.3 mph N/A Snow Light Snow Showers
11:11 AM 32.0 °F 16.5 °F 26.6 °F 80% 29.36 in - WNW 35.7 mph 48.3 mph N/A Snow Light Snow Showers
11:17 AM 32.0 °F 16.5 °F 26.6 °F 80% 29.39 in 3.1 mi WNW 35.7 mph - N/A Snow Light Snow Showers
12:00 PM 30.2 °F 15.2 °F 26.6 °F 86% 29.47 in 1.4 mi WNW 29.9 mph - N/A Snow Light Snow Showers
12:23 PM 30.2 °F 15.9 °F 26.6 °F 86% 29.47 in 0.9 mi WNW 26.5 mph - N/A Snow Light Snow Showers
12:35 PM 30.2 °F 16.2 °F 26.6 °F 86% 29.47 in 0.7 mi West 25.3 mph - N/A Snow Light Snow Showers
12:38 PM 30.2 °F 15.7 °F 26.6 °F 86% 29.47 in 0.5 mi West 27.6 mph - N/A Snow Snow Showers
1:00 PM 28.4 °F 12.3 °F 26.6 °F 93% 29.47 in 0.4 mi West 32.2 mph - N/A Snow Snow Showers
1:37 PM 28.4 °F 13.0 °F 24.8 °F 86% 29.50 in 0.7 mi West 28.8 mph - N/A Snow Light Snow Showers
2:00 PM 28.4 °F 12.7 °F 21.2 °F 74% 29.53 in 1.0 mi WNW 29.9 mph - N/A Snow Light Snow Showers
2:28 PM 28.4 °F 13.3 °F 19.4 °F 69% 29.53 in 1.5 mi West 27.6 mph - N/A Snow Light Snow Showers
2:42 PM 28.4 °F 13.0 °F 17.6 °F 64% 29.56 in - West 28.8 mph - N/A Snow Light Snow Showers
3:00 PM 26.6 °F 10.3 °F 17.6 °F 69% 29.56 in 6.2 mi WNW 29.9 mph - N/A   Mostly Cloudy
4:00 PM 24.8 °F 8.1 °F 12.2 °F 59% 29.59 in 6.2 mi West 28.8 mph - N/A   Mostly Cloudy
5:00 PM 24.8 °F 7.9 °F 12.2 °F 59% 29.62 in 6.2 mi West 29.9 mph - N/A Snow Light Snow Showers
6:00 PM 23.0 °F 5.4 °F 12.2 °F 63% 29.62 in 6.2 mi West 29.9 mph - N/A Snow Light Snow Showers